Wind_Speed
21 22 22 23 24 26 27 28 28 28 28 28 28 29 27 26 26 25 25 24 23 24 24 23 24 23 23 24 24 24 23 24 24 24 25 27 27 30 32 35 36 37 37
21 22 22 24 26 27 29 29 28 27 27 27 26 24 24 24 24 23 22 21 20 20 19 20 20 19 18 19 19 19 20 19 20 21 22 24 25 26 28 30 32 36 39
21 22 23 25 27 29 28 28 27 27 25 24 22 22 23 22 21 20 19 18 18 17 16 18 15 15 15 15 16 16 17 17 18 19 19 20 22 23 25 27 29 31 34
21 22 25 27 28 28 28 28 27 25 23 21 19 21 21 19 17 17 16 15 15 15 13 13 13 12 13 13 14 15 14 15 16 16 18 20 21 22 21 22 23 24 26
22 23 25 27 28 29 30 28 28 25 22 19 17 18 19 18 16 15 15 14 14 13 13 13 13 12 13 14 14 14 13 14 15 16 17 19 20 18 19 21 23 24 26
22 23 25 27 29 30 29 27 26 25 23 19 17 16 18 16 15 14 12 13 13 13 14 14 13 13 13 13 14 13 14 15 15 15 17 17 17 18 19 20 23 25 26
22 23 25 26 27 29 29 27 24 23 22 18 17 17 17 15 14 14 14 14 13 11 12 15 13 12 12 14 14 13 14 14 14 14 15 14 16 17 18 19 22 22 21
23 24 24 23 24 26 28 26 24 22 22 19 16 16 15 16 17 15 13 14 15 14 13 12 14 12 12 12 13 13 13 13 13 13 12 12 13 14 14 16 17 16 16
22 22 22 23 24 26 27 25 22 20 20 19 18 16 15 15 18 17 17 16 16 15 14 13 13 12 11 10 11 11 12 12 12 12 12 11 12 13 14 13 11 9 13
22 23 24 25 25 24 26 25 21 20 19 18 18 17 16 16 16 17 18 18 17 17 16 14 14 13 12 10 10 10 11 11 12 12 10 12 12 12 13 11 9 12 18
24 24 25 26 26 25 24 24 21 19 19 19 18 17 17 17 18 18 14 20 19 17 17 16 15 14 12 11 11 11 11 12 13 13 13 13 13 13 12 13 11 13 15
28 29 28 28 28 27 26 24 24 21 19 19 20 20 19 18 18 19 18 15 16 17 18 18 16 15 15 14 13 12 12 13 13 14 14 14 13 13 12 12 13 13 16
31 30 29 28 28 28 27 26 24 24 23 19 21 21 21 22 20 21 20 18 16 15 17 18 17 17 16 15 15 14 14 14 15 16 16 16 16 15 14 13 13 13 14
29 28 28 27 25 26 26 27 27 27 28 25 22 23 23 23 23 24 23 23 19 16 16 18 18 17 17 16 17 17 16 17 17 18 18 17 18 17 15 14 13 12 12
27 25 25 24 23 24 28 29 28 28 31 30 30 28 25 26 26 25 25 26 27 23 16 17 19 19 18 18 18 18 19 18 18 18 19 19 18 18 17 16 14 12 12
25 26 26 26 27 28 30 31 30 30 30 29 30 30 31 30 29 28 26 26 27 27 25 17 19 21 20 19 20 19 19 20 19 20 19 20 20 19 18 18 16 13 12
27 28 28 28 28 29 31 32 32 31 31 30 30 31 30 30 32 32 30 29 28 28 29 22 20 22 22 20 20 21 20 20 21 21 21 21 21 21 20 18 17 16 15
28 29 29 29 30 31 31 31 31 31 31 31 31 31 28 29 30 30 31 31 31 29 29 27 23 23 23 24 22 22 22 21 20 20 20 20 20 20 21 21 19 18 17
30 31 32 32 32 32 33 33 31 30 31 31 30 30 30 30 28 28 29 30 30 30 30 28 26 25 25 25 24 24 23 23 22 21 20 19 19 20 20 21 20 20 19
31 31 32 33 33 33 34 33 32 31 31 31 32 32 30 31 30 29 29 29 30 30 30 29 27 27 26 27 26 26 25 25 23 22 21 21 20 21 21 22 22 21 21
32 32 32 33 33 34 35 35 33 32 31 30 31 31 31 31 31 31 31 28 30 30 31 31 28 27 26 27 29 29 26 26 25 23 22 23 22 22 22 22 22 23 23
36 39 39 38 36 36 37 38 37 36 35 34 32 31 32 32 32 30 30 31 32 31 29 31 30 29 27 29 30 30 28 27 26 26 25 24 24 24 24 24 23 24 24
42 43 43 40 39 38 38 38 38 37 35 34 34 33 31 32 32 32 31 30 30 32 31 30 29 28 31 31 32 29 29 29 28 28 27 25 27 26 27 26 26 26 26
45 45 43 41 40 37 38 37 37 37 36 35 35 33 33 32 33 33 31 31 30 30 32 33 29 26 28 30 31 31 30 30 29 28 31 29 28 28 29 28 28 27 27
44 42 41 40 39 37 38 38 37 35 34 34 34 34 34 33 33 34 33 32 30 30 32 31 32 29 28 27 30 31 30 34 33 31 32 33 27 29 29 29 28 27 28
40 39 38 37 37 36 35 35 35 35 34 33 32 33 33 33 32 33 33 33 31 32 32 32 32 30 31 31 32 31 33 34 34 34 30 34 31 31 30 29 28 28 28
Wind_Direction
325 324 326 325 324 323 322 319 317 316 315 314 312 312 313 310 305 301 296 293 290 287 286 282 278 274 272 271 270 270 270 269 270 271 271 271 271 270 269 266 263 262 260
323 325 325 321 321 322 320 319 318 318 317 317 317 319 319 317 313 308 307 301 294 289 283 277 272 275 273 270 269 268 267 267 268 269 271 274 274 274 272 270 268 265 262
324 321 320 320 321 321 321 318 319 318 319 318 323 326 328 324 318 316 314 309 298 291 287 277 276 273 270 268 267 267 268 272 277 278 278 279 278 277 277 275 272 269 267
320 320 321 321 321 322 322 320 318 316 317 318 325 334 335 327 327 322 315 310 304 303 293 289 277 271 270 272 269 268 273 275 274 279 280 279 280 279 282 280 277 274 271
318 320 319 319 323 324 323 322 318 318 317 315 325 339 339 344 332 324 323 316 309 306 299 288 280 277 273 270 272 273 271 272 274 280 282 283 284 295 287 285 287 285 283
317 316 320 323 325 324 324 323 321 319 318 317 316 331 339 352 343 339 340 323 316 310 306 298 287 279 278 277 271 274 275 278 279 282 283 288 299 289 291 293 294 291 290
314 317 321 324 327 326 324 324 323 320 317 317 317 318 325 337 335 339 342 336 329 321 317 307 300 295 287 281 284 283 279 280 283 286 292 299 296 296 297 299 298 294 300
312 317 319 323 328 329 324 324 326 324 320 319 316 315 316 322 326 333 336 333 334 331 331 325 312 304 291 288 290 288 282 281 281 285 294 293 298 299 303 301 324 311 309
308 308 314 321 324 327 327 324 325 325 322 320 317 313 315 319 320 325 327 332 330 334 332 329 321 310 301 290 284 286 284 285 288 287 287 293 296 303 308 314 335 351 326
307 312 315 315 318 322 325 322 325 325 321 320 320 318 313 308 311 314 316 318 320 326 329 330 326 321 312 300 296 297 295 290 284 281 284 290 296 299 309 323 309 320 347
305 304 305 308 312 314 316 313 316 319 319 321 319 318 317 313 309 305 304 311 313 314 315 320 323 318 315 304 297 296 294 290 288 288 290 291 294 302 309 323 324 321 327
300 300 300 304 305 306 306 305 306 307 310 312 314 314 314 315 313 309 307 303 301 302 303 304 305 306 309 309 303 298 292 287 284 285 288 296 299 301 307 316 323 324 327
296 297 299 299 301 303 303 300 298 301 302 305 307 309 311 311 310 307 307 306 304 300 298 299 300 300 301 298 295 292 291 289 287 286 289 295 299 305 311 312 314 319 326
301 300 301 302 306 309 307 303 300 297 295 298 296 298 300 301 304 305 307 306 302 302 297 290 288 289 291 290 290 291 290 289 289 290 293 293 295 299 301 301 302 307 316
301 299 297 296 299 306 306 303 299 295 294 294 294 292 290 291 293 295 297 299 301 300 293 293 288 285 285 285 284 287 289 288 291 294 294 296 295 294 297 299 300 298 295
300 299 299 302 300 302 305 302 296 291 289 289 290 290 292 291 287 287 287 288 289 291 290 291 289 287 285 284 286 287 289 291 292 293 294 294 295 296 295 296 296 296 291
296 298 301 300 300 300 302 303 299 293 289 286 284 283 285 285 286 287 284 282 281 282 284 284 284 283 286 288 288 290 289 290 291 292 292 292 293 294 295 294 293 293 290
295 297 297 296 296 297 298 298 298 296 292 290 288 286 282 280 282 282 282 282 280 280 280 281 280 281 281 282 282 282 284 286 287 287 288 290 292 292 293 294 294 291 288
294 295 295 295 295 296 296 295 294 292 291 291 288 286 285 282 280 277 277 277 277 277 278 278 278 278 278 277 277 277 278 280 282 285 288 289 290 291 291 291 291 290 286
294 295 297 297 296 294 293 292 292 291 289 288 287 286 284 283 282 278 277 276 275 275 275 276 277 277 278 277 277 274 275 278 279 281 282 283 285 287 288 288 289 288 286
291 294 295 295 295 294 293 291 291 289 288 287 286 286 285 284 283 281 278 274 273 274 274 274 272 271 272 272 274 274 274 275 277 277 279 282 283 284 284 286 287 287 286
295 302 303 299 293 289 286 286 286 286 286 286 285 284 284 283 281 280 278 278 277 274 272 273 272 271 269 268 265 267 272 273 272 274 276 277 279 282 283 284 283 282 282
297 300 300 296 291 288 284 283 282 281 282 283 283 282 282 281 280 278 278 277 276 277 276 272 272 273 270 271 271 272 270 270 271 271 270 269 275 278 279 280 280 280 279
298 297 294 290 288 287 285 284 283 282 282 282 282 282 280 278 279 278 277 275 274 274 275 275 273 270 271 272 274 274 274 272 271 272 274 274 275 276 275 275 275 276 275
291 289 289 289 287 286 284 284 283 282 281 281 282 282 281 278 277 277 276 275 272 271 270 271 274 275 272 269 269 271 272 273 275 274 277 279 276 274 275 275 274 275 276
290 289 288 288 288 287 284 282 281 280 279 279 280 279 278 279 278 278 277 276 274 272 271 271 272 271 271 273 273 272 272 274 275 276 277 279 279 278 275 272 273 274 274
Height
3166 3163 3161 3158 3155 3151 3148 3144 3139 3136 3132 3129 3125 3121 3118 3115 3111 3109 3106 3104 3102 3101 3100 3099 3098 3097 3097 3097 3097 3098 3098 3098 3098 3098 3098 3097 3097 3096 3096 3096 3097 3098 3098
3163 3160 3158 3154 3151 3147 3143 3139 3135 3131 3128 3124 3121 3117 3113 3110 3106 3103 3100 3098 3097 3095 3095 3093 3091 3091 3091 3091 3091 3091 3091 3091 3091 3091 3091 3091 3090 3089 3089 3089 3089 3089 3089
3159 3156 3153 3150 3146 3143 3139 3135 3130 3126 3123 3120 3116 3113 3109 3105 3101 3098 3095 3094 3092 3091 3090 3088 3088 3086 3086 3086 3086 3086 3086 3086 3086 3086 3085 3085 3084 3083 3082 3082 3081 3081 3081
3155 3152 3149 3145 3142 3138 3135 3130 3127 3123 3119 3116 3113 3110 3105 3101 3097 3095 3093 3091 3089 3088 3087 3086 3085 3083 3082 3082 3082 3082 3082 3082 3082 3081 3081 3079 3078 3077 3076 3076 3075 3074 3072
3151 3148 3144 3141 3137 3133 3131 3128 3123 3119 3116 3112 3110 3107 3103 3098 3095 3094 3091 3090 3086 3085 3084 3083 3082 3080 3079 3079 3079 3079 3078 3078 3078 3077 3076 3075 3073 3073 3072 3071 3069 3067 3066
3146 3144 3141 3137 3134 3131 3127 3124 3120 3115 3112 3109 3107 3106 3101 3097 3094 3092 3089 3088 3086 3084 3082 3081 3079 3078 3076 3076 3075 3075 3075 3074 3074 3073 3072 3071 3071 3068 3067 3065 3063 3061 3059
3143 3140 3137 3134 3131 3127 3123 3120 3116 3113 3109 3106 3104 3102 3099 3096 3094 3090 3087 3085 3084 3082 3081 3079 3077 3075 3074 3073 3073 3072 3071 3070 3069 3069 3068 3068 3066 3064 3063 3061 3058 3055 3052
3139 3136 3134 3130 3127 3124 3120 3116 3113 3110 3106 3103 3101 3099 3097 3095 3092 3089 3086 3083 3082 3081 3079 3077 3075 3074 3072 3071 3070 3069 3067 3067 3066 3065 3065 3064 3062 3060 3059 3056 3054 3050 3047
3135 3133 3129 3126 3123 3119 3116 3113 3109 3106 3104 3100 3098 3097 3094 3091 3089 3086 3083 3081 3079 3078 3076 3075 3073 3071 3070 3068 3067 3066 3065 3064 3063 3063 3062 3061 3059 3057 3055 3053 3049 3046 3043
3130 3127 3124 3122 3119 3115 3112 3110 3105 3103 3101 3098 3095 3092 3090 3088 3086 3085 3082 3079 3077 3075 3074 3073 3071 3069 3067 3065 3064 3063 3062 3061 3061 3060 3059 3058 3056 3054 3051 3049 3047 3044 3041
3125 3123 3120 3117 3114 3110 3107 3106 3102 3099 3097 3096 3093 3089 3087 3085 3082 3081 3081 3077 3075 3072 3070 3069 3067 3066 3064 3062 3061 3060 3059 3059 3058 3057 3056 3055 3053 3051 3048 3045 3043 3041 3038
3119 3117 3115 3112 3109 3106 3103 3100 3099 3095 3092 3091 3089 3087 3084 3081 3079 3077 3075 3074 3073 3071 3068 3066 3065 3062 3061 3059 3058 3057 3056 3055 3054 3054 3052 3051 3049 3047 3045 3042 3040 3038 3035
3113 3110 3107 3105 3102 3100 3098 3096 3094 3092 3088 3085 3084 3082 3080 3078 3076 3073 3071 3070 3068 3068 3065 3063 3061 3059 3058 3056 3055 3054 3052 3051 3050 3049 3047 3046 3044 3043 3041 3039 3037 3035 3033
3106 3104 3102 3100 3097 3094 3091 3088 3088 3087 3084 3081 3077 3076 3074 3072 3071 3069 3066 3064 3063 3062 3061 3059 3057 3055 3054 3053 3051 3049 3048 3047 3046 3044 3042 3041 3039 3037 3036 3034 3033 3032 3030
3099 3096 3095 3093 3090 3088 3085 3083 3081 3079 3077 3075 3074 3070 3067 3066 3064 3062 3061 3058 3056 3055 3056 3053 3052 3050 3048 3047 3046 3044 3043 3042 3041 3039 3038 3036 3035 3033 3032 3030 3029 3029 3028
3093 3091 3089 3087 3085 3082 3079 3076 3073 3071 3069 3067 3065 3063 3062 3060 3057 3055 3053 3052 3050 3048 3047 3048 3046 3044 3043 3041 3040 3039 3037 3036 3035 3034 3033 3032 3030 3029 3028 3026 3025 3025 3024
3087 3084 3082 3080 3077 3075 3072 3070 3067 3063 3060 3059 3056 3054 3053 3051 3050 3048 3045 3044 3043 3041 3040 3041 3040 3038 3037 3035 3034 3032 3032 3031 3029 3029 3028 3026 3025 3023 3022 3021 3021 3020 3019
3080 3077 3074 3072 3069 3066 3063 3061 3059 3055 3053 3050 3048 3046 3044 3041 3041 3039 3037 3036 3034 3033 3032 3032 3033 3031 3031 3029 3029 3028 3026 3024 3023 3023 3023 3021 3019 3018 3016 3015 3015 3015 3014
3073 3070 3067 3064 3061 3058 3055 3052 3049 3047 3044 3042 3039 3037 3036 3033 3031 3029 3028 3027 3026 3025 3024 3024 3025 3024 3023 3022 3022 3021 3020 3019 3017 3016 3015 3015 3014 3013 3011 3010 3009 3009 3009
3065 3062 3059 3056 3053 3050 3046 3043 3040 3038 3036 3034 3031 3028 3026 3025 3023 3021 3019 3019 3018 3016 3015 3015 3016 3016 3015 3013 3013 3012 3012 3011 3011 3010 3009 3008 3008 3007 3006 3004 3003 3003 3002
3056 3053 3050 3047 3044 3041 3038 3036 3033 3029 3026 3024 3022 3020 3018 3016 3014 3013 3011 3009 3007 3008 3007 3006 3006 3006 3006 3005 3003 3003 3004 3003 3003 3002 3001 3001 3001 3000 3000 2998 2997 2997 2996
3047 3045 3041 3037 3034 3030 3027 3024 3023 3021 3018 3015 3014 3011 3009 3007 3005 3004 3002 3001 3000 2997 2997 2996 2997 2996 2997 2995 2994 2993 2994 2994 2995 2993 2993 2993 2993 2992 2991 2991 2991 2990 2989
3037 3034 3030 3027 3023 3020 3017 3014 3011 3009 3007 3005 3003 3002 3001 2998 2995 2995 2994 2992 2991 2989 2987 2986 2986 2988 2986 2986 2985 2986 2985 2985 2986 2985 2985 2986 2984 2984 2983 2983 2983 2982 2982
3026 3023 3019 3016 3012 3010 3006 3004 3001 2999 2997 2995 2993 2991 2989 2988 2986 2985 2985 2983 2981 2980 2979 2977 2977 2977 2976 2977 2976 2976 2976 2975 2976 2976 2974 2975 2976 2976 2975 2974 2974 2974 2974
3014 3010 3007 3004 3001 2999 2995 2993 2990 2988 2986 2985 2983 2981 2978 2977 2976 2975 2974 2974 2973 2971 2968 2969 2969 2968 2966 2965 2965 2966 2966 2964 2965 2966 2965 2963 2967 2965 2965 2965 2964 2964 2963
3002 2999 2996 2993 2989 2987 2985 2982 2980 2978 2975 2974 2973 2970 2968 2967 2966 2964 2963 2963 2963 2961 2960 2959 2960 2960 2960 2959 2956 2955 2953 2954 2954 2954 2957 2954 2954 2954 2954 2954 2954 2953 2953